Probability
0 0 0 0 0 0 0 0 0 0 3 3 3 6 10 19 23 19 16 16 16 23 16 13 13 10 13 13 13 13 13 10 6 3 6 3 0 0 0 0 0 0 0 0
0 0 0 0 0 3 3 0 0 0 0 0 0 6 10 13 23 19 16 13 13 16 19 16 16 16 10 13 10 10 13 13 10 0 0 0 0 0 3 3 6 6 6 6
0 0 0 0 0 0 0 0 0 0 0 0 6 6 10 10 16 19 16 13 16 16 16 19 19 13 10 10 6 10 6 3 6 6 6 6 3 6 3 3 3 3 3 3
0 0 0 0 0 0 0 3 3 3 0 0 6 6 10 6 3 10 13 16 19 19 16 10 13 10 10 6 6 6 3 6 3 3 0 0 0 0 3 3 3 3 3 3
0 0 0 0 0 0 3 6 3 3 0 0 6 10 6 3 10 13 13 19 16 16 13 10 16 10 6 6 3 3 3 3 3 3 0 0 0 0 0 0 0 0 0 0
0 0 0 0 0 0 0 3 3 3 0 3 10 10 6 0 3 6 13 10 13 16 10 13 13 13 6 3 3 3 3 3 3 6 3 3 0 0 0 0 0 0 0 0
0 0 0 0 0 0 0 0 3 6 6 3 3 3 3 0 0 6 6 6 16 13 13 13 6 6 6 3 3 3 3 6 6 3 3 3 3 0 0 0 0 0 0 0
0 0 0 0 0 0 0 0 6 6 3 0 0 0 6 0 3 6 6 6 6 10 10 3 3 3 3 3 6 6 6 3 0 0 3 3 3 0 0 0 0 0 0 0
0 0 0 0 0 0 0 6 6 6 3 0 3 6 3 6 3 3 6 6 6 10 6 3 3 3 3 3 3 3 6 6 3 3 0 3 3 3 0 0 0 0 0 0
0 0 0 0 0 0 0 6 10 10 3 3 3 3 6 6 3 6 6 3 10 10 10 6 3 3 3 3 3 3 3 0 0 3 3 3 3 3 3 3 3 0 0 0
0 0 0 0 0 0 0 3 6 10 3 3 6 6 3 3 3 3 6 6 6 10 10 6 3 3 0 0 0 0 0 0 0 3 3 3 3 0 3 3 3 3 3 3
0 0 0 0 0 0 0 3 3 3 0 3 3 0 0 0 3 3 3 6 6 6 6 6 3 0 0 0 0 0 3 0 0 0 3 3 3 0 0 0 0 0 0 0
0 0 0 0 0 0 0 0 3 0 0 0 0 0 0 0 0 0 3 3 6 6 6 3 0 0 0 0 0 0 0 0 0 0 3 3 3 0 0 0 0 0 0 0
0 0 0 0 0 0 0 0 0 0 0 0 0 0 0 0 0 0 0 0 0 3 3 3 3 3 0 0 0 0 0 0 0 0 3 3 0 0 0 0 0 0 0 0
0 0 0 0 0 0 0 0 0 0 0 0 0 0 0 0 0 0 0 0 0 0 0 3 3 3 3 0 0 0 0 0 0 0 0 0 0 0 0 0 0 0 0 0
0 0 0 0 0 0 0 0 0 0 0 0 0 0 0 0 0 0 0 0 0 0 0 0 0 0 3 3 0 0 0 0 0 0 0 0 0 0 0 0 0 0 0 0
0 0 0 0 0 0 0 0 0 0 0 0 0 0 0 0 0 0 0 0 0 0 0 0 0 0 0 0 0 0 0 0 0 0 0 0 0 0 0 0 0 0 0 0
0 0 0 0 0 0 0 0 0 0 0 0 0 0 0 0 0 0 0 0 0 0 0 0 0 0 0 0 0 0 0 0 0 0 0 0 0 0 0 0 0 0 0 0
0 0 0 0 0 0 0 0 0 0 0 0 0 0 0 0 0 0 0 0 0 0 0 0 0 0 0 0 0 0 0 0 0 0 0 0 0 0 0 0 0 0 0 0
0 0 0 0 0 0 0 0 0 0 0 0 0 0 0 0 0 0 0 0 0 0 0 0 0 0 0 0 0 0 0 0 0 0 0 0 0 0 0 0 0 0 0 0
0 0 0 0 0 0 0 0 0 0 0 0 0 0 0 0 0 0 0 0 0 0 0 0 0 0 0 0 0 0 0 0 0 0 0 0 0 0 0 0 0 0 0 0
0 0 0 0 0 0 0 0 0 0 0 0 0 0 0 0 0 0 0 0 0 0 0 0 0 0 0 0 0 0 0 0 0 0 0 0 0 0 0 0 0 0 0 0
0 0 0 0 0 0 0 0 0 0 0 0 0 0 0 0 0 0 0 0 0 0 0 0 0 0 0 0 0 0 0 0 0 0 0 0 0 0 0 0 0 0 0 0
0 0 0 0 0 0 0 0 0 0 0 0 0 0 0 0 0 0 0 0 0 0 0 0 0 0 0 0 0 0 0 0 0 0 0 0 0 0 0 0 0 0 0 0
0 0 0 0 0 0 0 0 0 0 0 0 0 0 0 0 0 0 0 0 0 0 0 0 0 0 0 0 0 0 0 0 0 0 0 0 0 0 0 0 0 0 0 0
0 0 0 0 0 0 0 0 0 0 0 0 0 0 0 0 0 0 0 0 0 0 0 0 0 0 0 0 0 0 0 0 0 0 0 0 0 0 0 0 0 0 0 0
0 0 0 0 0 0 0 0 0 0 0 0 0 0 0 0 0 0 0 0 0 0 0 0 0 0 0 0 0 0 0 0 0 0 0 0 0 0 0 0 0 0 0 0
Height
5841 5844 5846 5849 5851 5854 5856 5858 5860 5862 5863 5865 5866 5866 5867 5867 5867 5867 5866 5866 5865 5864 5863 5862 5861 5861 5860 5860 5860 5859 5858 5858 5857 5857 5857 5857 5858 5858 5858 5857 5857 5857 5857 5857
5835 5839 5841 5844 5847 5849 5851 5854 5855 5857 5860 5861 5862 5863 5863 5864 5864 5864 5864 5863 5863 5862 5861 5860 5859 5859 5858 5858 5857 5857 5856 5855 5855 5855 5855 5855 5855 5855 5854 5854 5853 5853 5853 5852
5830 5833 5836 5839 5842 5844 5847 5849 5852 5853 5856 5857 5858 5859 5860 5861 5861 5861 5861 5861 5860 5859 5858 5857 5857 5856 5856 5856 5855 5854 5854 5853 5852 5852 5852 5852 5852 5851 5851 5850 5849 5849 5848 5848
5823 5828 5830 5836 5837 5839 5842 5844 5847 5849 5851 5852 5854 5855 5856 5857 5857 5858 5858 5857 5856 5856 5855 5854 5854 5854 5853 5853 5852 5851 5851 5850 5850 5849 5849 5848 5848 5847 5846 5846 5845 5844 5844 5843
5817 5820 5824 5828 5831 5834 5837 5839 5841 5843 5845 5847 5848 5850 5851 5852 5852 5853 5853 5853 5853 5852 5852 5851 5850 5850 5850 5849 5849 5848 5847 5847 5846 5846 5845 5844 5843 5843 5842 5841 5841 5840 5839 5838
5810 5813 5817 5822 5825 5827 5831 5833 5836 5837 5839 5841 5843 5845 5847 5847 5847 5848 5848 5849 5848 5848 5847 5847 5847 5846 5846 5845 5845 5844 5844 5843 5842 5841 5841 5840 5839 5838 5837 5837 5836 5835 5834 5833
5802 5805 5809 5814 5818 5821 5825 5828 5830 5831 5833 5835 5837 5839 5841 5841 5842 5843 5843 5843 5843 5843 5843 5843 5842 5841 5840 5840 5840 5839 5839 5838 5838 5837 5836 5835 5834 5833 5832 5831 5830 5829 5828 5827
5794 5798 5804 5807 5811 5815 5817 5820 5822 5824 5826 5828 5830 5832 5834 5835 5836 5837 5837 5837 5837 5837 5837 5837 5836 5835 5834 5834 5834 5834 5833 5833 5832 5831 5830 5829 5828 5827 5826 5825 5824 5823 5822 5820
5787 5792 5795 5799 5803 5806 5809 5812 5815 5818 5820 5822 5823 5825 5827 5828 5829 5830 5831 5831 5831 5831 5830 5830 5830 5829 5828 5828 5828 5828 5828 5827 5826 5825 5824 5823 5822 5821 5820 5819 5818 5816 5815 5814
5777 5782 5786 5790 5794 5798 5801 5805 5808 5810 5813 5815 5816 5818 5819 5821 5822 5823 5824 5824 5824 5824 5824 5823 5822 5822 5822 5822 5822 5822 5821 5821 5820 5819 5817 5816 5815 5814 5813 5812 5811 5809 5808 5806
5768 5773 5777 5782 5785 5790 5793 5796 5799 5802 5804 5807 5809 5810 5812 5813 5814 5815 5816 5817 5817 5817 5817 5817 5816 5816 5815 5815 5815 5815 5814 5814 5813 5812 5811 5809 5808 5807 5806 5805 5804 5802 5801 5799
5760 5765 5769 5773 5777 5781 5784 5788 5791 5794 5796 5798 5800 5802 5804 5805 5806 5807 5809 5809 5809 5809 5810 5810 5809 5809 5808 5808 5808 5807 5806 5806 5805 5804 5803 5802 5801 5800 5798 5797 5796 5795 5793 5792
5752 5755 5760 5764 5768 5772 5775 5779 5782 5785 5787 5790 5792 5794 5795 5797 5798 5799 5800 5801 5801 5801 5802 5802 5802 5802 5801 5801 5800 5799 5798 5798 5797 5796 5795 5794 5793 5792 5790 5789 5788 5787 5785 5783
5743 5747 5751 5755 5759 5763 5766 5770 5773 5776 5779 5781 5783 5785 5787 5788 5789 5791 5792 5793 5793 5794 5794 5794 5794 5794 5793 5793 5792 5791 5790 5789 5789 5788 5786 5785 5784 5783 5782 5781 5780 5779 5777 5776
5735 5739 5743 5746 5750 5754 5757 5761 5764 5767 5770 5772 5775 5777 5779 5780 5781 5782 5783 5785 5785 5785 5786 5786 5786 5786 5785 5785 5784 5783 5782 5781 5780 5779 5779 5778 5777 5776 5774 5773 5772 5771 5769 5768
5728 5731 5735 5739 5742 5745 5749 5752 5756 5759 5762 5764 5767 5769 5770 5772 5773 5774 5775 5776 5777 5778 5778 5778 5778 5778 5777 5777 5776 5775 5774 5773 5773 5772 5771 5770 5769 5768 5767 5766 5765 5763 5762 5760
5721 5725 5728 5732 5735 5737 5741 5744 5748 5751 5754 5756 5759 5761 5762 5764 5765 5766 5767 5768 5769 5770 5770 5770 5771 5770 5770 5769 5768 5768 5767 5766 5766 5765 5764 5763 5762 5761 5760 5758 5757 5756 5754 5752
5715 5718 5722 5725 5728 5731 5733 5736 5740 5743 5746 5749 5751 5753 5755 5756 5758 5759 5760 5761 5761 5762 5762 5763 5763 5763 5762 5762 5761 5761 5760 5760 5759 5758 5757 5756 5755 5754 5752 5751 5749 5748 5746 5745
5709 5713 5716 5719 5722 5724 5727 5730 5733 5736 5739 5741 5744 5745 5747 5749 5750 5751 5752 5753 5754 5755 5755 5756 5756 5756 5755 5755 5754 5754 5753 5753 5752 5751 5750 5749 5747 5746 5745 5743 5742 5740 5739 5737
5704 5707 5711 5714 5716 5719 5721 5724 5727 5730 5733 5735 5737 5739 5741 5742 5744 5745 5746 5747 5748 5748 5748 5749 5749 5749 5748 5748 5748 5747 5746 5746 5745 5744 5743 5742 5740 5739 5738 5737 5735 5733 5731 5730
5699 5703 5706 5709 5712 5714 5717 5719 5722 5725 5727 5729 5731 5733 5735 5736 5738 5739 5740 5741 5741 5741 5742 5742 5742 5742 5742 5741 5741 5740 5740 5739 5738 5738 5737 5735 5734 5733 5731 5730 5728 5726 5724 5722
5696 5699 5702 5705 5707 5710 5712 5715 5717 5720 5722 5724 5726 5728 5730 5731 5732 5733 5734 5735 5735 5735 5736 5736 5736 5736 5736 5735 5735 5734 5734 5733 5732 5731 5730 5729 5728 5726 5725 5723 5721 5720 5718 5716
5693 5696 5698 5701 5704 5706 5709 5711 5713 5716 5718 5720 5722 5724 5725 5726 5727 5728 5729 5729 5729 5730 5730 5730 5730 5730 5730 5730 5729 5728 5728 5727 5726 5725 5724 5723 5721 5720 5718 5717 5715 5713 5711 5709
5690 5693 5695 5698 5700 5703 5705 5708 5710 5712 5714 5716 5718 5719 5721 5722 5723 5723 5724 5724 5725 5725 5725 5725 5725 5725 5725 5724 5723 5723 5722 5721 5720 5719 5718 5717 5715 5714 5712 5710 5708 5706 5704 5702
5689 5691 5693 5696 5698 5701 5703 5705 5707 5709 5711 5712 5714 5716 5717 5718 5718 5719 5719 5720 5720 5720 5720 5720 5720 5720 5720 5719 5718 5718 5717 5716 5715 5714 5712 5711 5709 5708 5706 5704 5702 5700 5697 5695
5688 5690 5693 5695 5697 5699 5701 5702 5704 5706 5708 5710 5711 5712 5713 5713 5714 5715 5715 5716 5716 5716 5716 5716 5716 5716 5715 5714 5713 5712 5711 5710 5709 5708 5707 5705 5703 5701 5699 5697 5695 5693 5690 5688
5687 5690 5692 5694 5696 5697 5699 5701 5703 5704 5706 5707 5708 5709 5710 5710 5711 5712 5712 5712 5712 5712 5712 5712 5712 5711 5710 5710 5709 5708 5707 5705 5704 5702 5701 5699 5697 5695 5693 5691 5688 5686 5683 5680
Wind_Speed
27 26 27 26 25 24 23 22 21 19 17 15 15 15 14 14 14 12 11 11 11 11 11 10 9 9 8 9 9 9 8 8 9 9 10 10 11 11 12 12 13 14 15 16
27 27 27 27 26 25 24 24 23 21 20 17 17 17 16 15 14 13 12 12 12 12 12 12 11 10 10 10 11 11 11 10 10 11 11 11 12 13 14 14 15 15 16 17
27 27 28 29 28 27 25 24 24 23 21 20 19 18 17 16 15 14 13 13 14 13 12 11 11 10 10 11 11 12 12 12 12 12 12 13 14 15 16 16 16 16 17 18
29 28 30 28 28 28 27 26 25 24 23 22 20 19 18 17 17 16 16 15 14 13 12 13 13 12 12 12 13 13 14 13 13 13 14 15 15 16 16 17 17 18 19 19
32 32 31 30 28 28 28 28 27 25 23 23 22 21 20 19 18 18 17 15 15 15 15 14 14 13 13 14 14 14 15 16 15 15 16 16 17 17 17 18 18 19 20 21
37 35 35 32 30 30 29 29 27 26 25 24 24 23 22 21 20 20 18 17 16 16 16 16 16 15 15 16 15 16 17 17 17 17 17 18 18 19 19 19 20 20 21 22
40 39 37 34 32 31 31 29 27 27 26 26 25 24 23 23 22 21 20 19 18 18 18 18 17 17 17 17 17 17 18 18 18 19 19 20 20 20 20 21 22 23 23 24
42 41 40 36 34 32 31 29 28 27 26 26 25 25 25 25 24 22 21 21 21 21 21 20 19 20 19 18 19 19 20 20 21 21 22 22 22 22 22 23 23 23 24 25
43 42 40 38 37 35 33 31 30 28 27 27 27 27 28 27 26 25 24 24 24 24 24 23 23 22 22 21 21 21 22 22 23 23 24 24 24 23 23 23 24 25 26 26
43 43 42 40 39 37 35 33 31 30 29 28 28 28 27 27 27 27 26 25 25 25 24 24 24 23 22 22 22 23 24 24 24 24 25 25 24 24 24 25 26 27 27 27
41 42 41 40 39 37 36 34 33 31 31 31 30 29 29 28 28 27 28 28 27 26 25 24 22 22 22 22 23 24 25 25 25 25 25 25 25 25 26 26 27 28 28 27
40 40 40 40 39 38 37 35 34 33 32 32 32 31 31 31 30 29 29 28 28 27 26 25 25 24 23 24 25 25 26 26 26 27 27 27 27 27 27 28 29 30 29 29
37 38 38 38 38 38 37 36 35 34 33 33 32 32 32 32 31 31 30 29 27 26 26 25 25 25 25 25 26 26 27 27 28 28 28 28 28 29 29 29 29 29 29 29
36 36 36 36 37 37 36 35 35 34 33 32 32 31 31 31 30 30 29 28 27 26 26 26 26 26 26 27 27 27 27 28 28 29 29 29 28 28 28 28 28 28 28 29
34 33 33 34 35 35 34 34 33 33 32 31 31 30 30 31 30 29 28 27 26 26 27 27 26 26 27 27 27 27 26 27 27 27 27 27 27 27 28 28 27 27 28 28
32 31 31 31 32 32 32 32 32 31 31 31 31 30 29 29 29 30 29 27 27 27 27 27 27 27 26 26 26 26 26 25 25 26 26 26 26 26 27 27 27 27 28 28
29 29 29 30 31 31 31 31 31 30 29 29 29 29 29 28 28 28 27 27 27 26 26 26 26 25 25 25 25 25 25 25 26 26 26 26 26 26 27 27 27 28 28 29
28 28 28 26 26 26 27 28 29 29 27 27 28 28 27 26 26 25 25 25 24 24 24 24 24 24 24 24 24 24 25 25 25 25 25 26 26 27 27 27 27 27 27 28
26 26 26 25 25 24 25 26 25 26 26 25 25 24 24 24 23 23 23 22 22 22 22 22 22 22 22 22 23 24 24 24 24 24 25 25 25 25 25 25 26 26 27 27
23 23 23 23 23 22 21 22 21 21 21 21 21 20 20 21 20 20 20 20 20 21 21 22 22 22 22 22 22 22 23 23 23 24 24 24 23 23 24 24 25 26 26 27
21 21 21 21 21 20 19 19 18 18 19 18 19 19 18 19 19 19 19 19 19 20 21 21 22 22 22 22 21 21 21 22 22 23 22 22 22 22 23 23 24 24 24 24
18 18 18 18 18 18 17 17 17 18 18 17 17 17 17 17 17 18 19 19 19 20 20 20 20 20 20 19 19 19 20 20 21 21 21 21 21 22 22 23 22 23 23 24
16 16 16 16 16 15 15 16 16 17 16 16 16 16 16 16 16 17 17 17 17 17 18 17 17 18 18 18 19 18 19 19 20 20 20 20 21 21 21 21 22 23 23 24
14 14 14 14 14 14 14 14 14 15 15 15 15 15 15 15 15 15 16 16 16 15 16 16 16 17 18 17 17 17 18 19 19 19 20 20 20 20 21 22 22 23 23 24
13 13 13 13 13 13 13 13 13 13 13 13 13 14 14 14 14 14 14 14 14 14 14 15 15 16 16 16 17 17 17 18 18 19 19 19 20 21 22 23 23 24 25 25
12 12 12 12 11 11 11 12 11 11 11 11 11 12 12 12 12 12 12 12 12 12 13 13 14 15 15 15 16 17 17 18 18 19 20 20 21 22 23 23 24 24 25 26
11 11 10 9 9 9 9 9 9 9 9 9 9 9 9 9 9 10 10 11 11 12 13 13 14 14 14 15 16 16 17 18 19 20 21 22 23 24 24 24 25 25 26 26
Wind_Direction
229 229 233 237 240 243 246 251 256 261 264 265 266 268 273 280 285 286 294 301 308 314 317 318 307 295 295 296 288 292 283 276 275 275 275 277 279 278 280 277 272 272 270 268
231 229 232 236 239 243 247 250 255 259 263 267 268 269 274 279 283 287 293 296 298 307 309 312 308 297 293 291 289 289 285 278 276 274 278 281 281 278 278 277 276 275 273 272
236 233 234 236 240 245 250 253 256 261 264 267 270 272 276 276 280 286 291 294 297 301 301 305 305 305 296 292 292 290 286 282 281 280 280 281 282 282 280 278 277 276 275 273
240 238 240 241 242 246 250 255 258 261 262 264 268 271 273 275 277 280 282 288 294 297 297 298 297 296 294 292 292 290 286 282 282 282 283 282 284 285 283 280 277 276 275 274
243 243 245 245 246 249 252 254 257 260 262 262 264 268 273 276 276 279 282 285 289 292 295 298 294 292 290 288 288 289 288 284 281 282 284 283 283 284 284 282 281 280 278 276
244 246 249 250 251 253 254 255 256 258 260 262 263 267 271 272 272 275 280 283 285 287 290 293 292 290 288 285 285 286 288 288 285 283 283 283 283 283 284 285 284 282 279 281
245 248 250 251 252 254 255 257 257 258 260 261 261 265 267 267 268 271 273 277 280 282 286 289 290 289 289 284 284 285 286 287 287 286 284 284 284 284 284 284 284 284 282 282
245 247 249 251 252 253 256 257 258 258 258 259 260 262 263 265 268 269 271 276 281 280 283 284 285 287 285 282 282 283 285 287 286 286 285 285 284 283 282 283 283 284 284 283
244 247 249 250 252 253 254 255 257 256 257 259 260 261 263 265 266 266 270 275 280 283 283 283 283 284 282 280 279 281 283 284 284 284 284 283 283 282 281 281 282 282 282 283
244 246 248 250 252 253 254 255 256 255 256 258 260 261 264 266 267 270 270 274 279 280 280 282 282 278 277 276 278 280 282 282 282 282 282 281 280 281 281 282 282 283 283 283
243 245 247 249 251 252 254 255 254 254 256 257 259 260 261 264 266 268 270 274 275 275 275 278 277 276 276 277 278 280 280 280 280 280 280 280 280 279 280 280 282 283 284 283
243 244 246 248 249 250 251 252 253 253 255 255 257 258 260 262 264 266 270 275 274 273 272 275 273 275 277 278 279 280 280 280 280 279 278 278 277 277 278 279 280 282 282 283
242 243 245 246 248 249 250 251 252 253 254 254 254 257 260 262 263 265 267 270 270 270 271 272 271 274 278 280 280 280 279 279 279 278 277 277 277 278 278 278 280 282 282 282
241 243 244 245 246 248 249 250 250 252 253 253 253 256 259 261 262 262 263 265 265 267 269 270 269 273 277 279 279 278 278 277 277 278 278 278 278 278 278 281 283 283 283 284
240 242 244 245 246 246 246 246 248 250 251 251 252 254 257 259 260 260 261 262 265 266 268 268 269 272 275 277 276 277 279 278 277 276 278 278 278 279 280 282 283 284 285 286
237 240 242 243 243 244 244 245 246 247 249 249 251 254 257 259 261 260 260 261 264 266 267 269 271 272 274 275 275 275 277 276 275 276 278 278 279 280 281 282 283 285 287 287
235 238 240 240 241 243 244 244 243 244 245 247 249 251 254 257 260 260 260 262 263 265 268 269 269 271 272 274 274 275 275 274 275 276 279 280 280 282 283 283 284 285 286 287
235 236 236 238 242 245 243 241 240 242 245 248 248 250 253 256 258 258 258 260 261 264 266 268 270 271 272 273 275 276 275 275 276 278 279 281 283 284 284 284 285 286 287 288
234 235 237 239 241 242 240 239 240 241 244 246 247 249 251 253 255 257 257 259 261 262 265 269 271 272 274 274 274 275 275 277 280 282 283 285 285 285 285 285 286 287 288 289
231 232 233 235 236 238 238 234 234 236 239 240 243 246 248 249 251 255 258 260 261 263 265 269 270 273 273 274 276 276 277 279 281 283 285 286 286 287 286 288 289 290 292 293
225 228 231 233 235 236 234 230 230 233 235 237 240 245 247 248 251 253 257 260 263 265 266 268 270 273 275 276 278 279 279 280 282 284 286 286 286 287 288 290 292 295 295 295
222 225 227 228 229 229 229 229 228 231 233 236 238 241 245 249 252 255 259 262 264 265 267 269 271 273 275 277 278 279 281 282 284 285 285 286 288 289 291 293 295 297 298 299
221 221 222 224 224 223 226 227 226 227 230 233 237 241 246 249 252 257 260 262 264 265 267 269 270 273 275 277 278 279 279 279 282 283 286 289 291 292 293 294 296 298 300 301
209 211 214 217 218 220 223 224 225 226 227 231 238 243 247 251 255 258 261 263 264 267 268 269 271 274 276 276 277 279 280 282 283 285 289 292 295 296 296 296 298 300 301 302
203 206 210 211 212 216 219 217 218 223 227 235 242 247 251 254 256 258 261 262 264 267 269 270 272 275 276 277 280 283 285 285 287 290 293 295 297 298 299 300 300 301 302 302
196 200 202 203 209 213 214 216 221 226 233 241 245 249 252 253 255 257 260 263 265 267 270 273 275 277 280 283 285 286 288 289 292 294 296 297 298 300 301 301 301 302 303 303
190 192 195 201 206 208 210 214 221 228 233 237 240 243 246 250 253 258 262 264 265 269 272 274 277 281 285 288 290 292 293 294 296 298 298 299 300 300 301 302 303 303 303 303